カタログに戻る

ARIANE 2 DEB

LostGTO
NORAD 29022·DEBRIS·🇫🇷 France

打ち上げ Jan 27, 1989 から Guiana Space Centre

Loading…

TLE

古いSource: Space-Track

元期: Apr 24, 2014, 06:16 UTC

1 29022U 89006AN  14114.26138917  .00000226  00000-0  14623-1 0  9993
2 29022   8.3434 139.2836 7065105  20.1424   8.1861  2.25258115 79650

AllMySatでARIANE 2 DEBをリアルタイム追跡

Download on the App Store